Home   Weather   Cologne   Past weeks

Flag for Germany Past Weather in Cologne, North Rhine-Westphalia, Germany — Yesterday and Last 2 Weeks

Now
18 °F

Clear.


Feels Like: 18 °F
Forecast: 22 / 35 °F
Wind: 2 mph from North

Location: Koeln / Bonn

Current Time: Jan 20, 2017 at 4:55:08 am

Latest Report: Jan 20, 2017 at 4:20 am


Visibility: 10 mi

Pressure: 30.57 "Hg

Humidity: 86%

Dew Point: 14 °F

Location of CologneLocation

Past Weather in Cologne — Graph

°F

Cologne Temperature Yesterday

Maximum temperature yesterday: 36 °F (at 2:20 pm)
Minimum temperature yesterday: 14 °F (at 8:50 am)
Average temperature yesterday: 24 °F

High & Low Weather Summary for the Past Weeks

 TemperatureHumidityPressure
High46 °F (Jan 11, 4:20 pm)100% (Jan 5, 3:20 am)30.74 "Hg (Jan 5, 3:20 am)
Low12 °F (Jan 18, 7:20 am)51% (Jan 5, 3:20 pm)28.97 "Hg (Jan 13, 1:20 am)
Average31 °F87%30.22 "Hg
* Reported Jan 5 3:20 am — Jan 20 3:20 am, Cologne, Weather by CustomWeather, © 2017

Note: Actual official high and low records may vary slightly from our data, if they occured in-between our weather recording intervals... More about our weather records

Advertising

Cologne Weather History for the Previous 24 Hours

Scroll right to see more
 ConditionsComfort  
Time TempWeatherWind HumidityBarometerVisibility
3:20 am
Fri, Jan 20
19 °FClear.1 mph86%30.57 "Hg10 mi
2:50 am18 °FClear.1 mph93%30.57 "Hg10 mi
2:20 am19 °FClear.2 mph93%30.57 "Hg10 mi
1:50 am18 °FClear.1 mph93%30.57 "Hg10 mi
12:50 am23 °FClear.3 mph80%30.57 "Hg10 mi
12:20 am21 °FPassing clouds.3 mph93%30.60 "HgN/A
11:50 pm
Thu, Jan 19
21 °FClear.3 mph93%30.60 "Hg10 mi
11:20 pm23 °FClear.6 mph86%30.60 "Hg10 mi
10:50 pm19 °FClear.5 mph93%30.60 "Hg10 mi
10:20 pm21 °FClear.3 mph86%30.60 "Hg10 mi
9:50 pm21 °FPassing clouds.3 mph86%30.60 "HgN/A
9:20 pm23 °FClear.1 mph86%30.60 "Hg10 mi
8:50 pm23 °FClear.1 mph93%30.60 "Hg10 mi
8:20 pm23 °FClear.1 mph86%30.60 "Hg10 mi
7:50 pm27 °FClear.2 mph80%30.60 "Hg10 mi
7:20 pm28 °FClear.1 mph74%30.60 "Hg10 mi
6:50 pm28 °FClear.1 mph74%30.60 "Hg10 mi
6:20 pm28 °FClear.3 mph74%30.60 "Hg10 mi
5:50 pm28 °FClear.2 mph74%30.60 "Hg10 mi
5:20 pm32 °FClear.2 mph64%30.60 "Hg10 mi
4:50 pm34 °FSunny.1 mph65%30.60 "Hg10 mi
4:20 pm34 °FSunny.1 mph65%30.60 "Hg10 mi
3:50 pm36 °FPassing clouds.3 mph60%30.60 "HgN/A
3:20 pm36 °FSunny.2 mph56%30.60 "Hg10 mi
2:50 pm34 °FPassing clouds.5 mph60%30.60 "HgN/A
2:20 pm36 °FPassing clouds.3 mph56%30.60 "HgN/A
1:50 pm34 °FPassing clouds.3 mph60%30.60 "HgN/A
1:20 pm34 °FPassing clouds.3 mph60%30.60 "HgN/A
12:50 pm32 °FSunny.1 mph64%30.63 "Hg10 mi
12:20 pm30 °FSunny.1 mph69%30.63 "Hg10 mi
11:50 am28 °FSunny.2 mph74%30.63 "Hg10 mi
11:20 am25 °FPassing clouds.3 mph80%30.66 "HgN/A
10:50 am25 °FPassing clouds.5 mph80%30.66 "HgN/A
10:20 am23 °FSunny.No wind80%30.66 "Hg10 mi
9:50 am21 °FSunny.2 mph86%30.66 "Hg10 mi
9:20 am18 °FSunny.3 mph86%30.66 "Hg10 mi
8:50 am14 °FPassing clouds.3 mph92%30.63 "HgN/A
8:20 am16 °FClear.3 mph93%30.63 "Hg10 mi
7:50 am16 °FClear.2 mph93%30.63 "Hg10 mi
7:20 am18 °FClear.3 mph86%30.63 "Hg10 mi
6:50 am16 °FClear.3 mph93%30.63 "Hg10 mi
6:20 am18 °FClear.2 mph93%30.63 "Hg10 mi
5:50 am18 °FClear.2 mph93%30.63 "Hg10 mi
5:20 am18 °FClear.1 mph93%30.63 "Hg10 mi
4:50 am18 °FClear.2 mph93%30.63 "Hg10 mi
4:20 am16 °FClear.1 mph93%30.63 "Hg10 mi
Weather by CustomWeather, © 2017

See weather overviewHow to use our weather pages